Terminal Aerodrome Forecast
Issued by NWS

Home | Current Version | Previous Version | Text Only | Print | Product List | Glossary On
Versions: 1 2 3 4 5 6 7 8 9 10 11 12 13 14 15 16 17 18 19 20 21 22 23 24 25
000
FTUS43 KLSX 051100
TAFSUS
TAF
KSUS 051130Z 0512/0612 34004KT P6SM SCT150
     FM051500 34008KT P6SM FEW030 SCT150
     FM060000 VRB03KT P6SM SKC=

USA.gov is the U.S. government's official web portal to all federal, state and local government web resources and services.